Location: Killam
(52.7910°N, 111.8608°W)
Time: 04:55:55
(UTC+00:00)

ARIANE 6 FM1 Upper Stage - Visible Passes

Search period start: 15 January 2026 00:00
Search period end: 25 January 2026 00:00
Orbit: 522 x 610 km, 62.0° (Epoch: 14 January)

Date Brightness Start Highest point End Pass type
(mag) Time Alt. Az. Time Alt. Az. Time Alt. Az.
15 Jan 4.9 13:14:27 12° SSW 13:14:27 12° SSW 13:15:04 10° SSW visible
22 Jan 4.8 01:37:34 10° SE 01:38:06 11° SE 01:38:06 11° SE visible
22 Jan 5.2 03:13:35 10° SW 03:14:10 14° SW 03:14:10 14° SW visible
23 Jan 4.3 01:36:34 10° SSE 01:38:58 17° SE 01:38:58 17° SE visible
23 Jan 4.9 03:13:44 10° SW 03:15:01 20° SW 03:15:01 20° SW visible
24 Jan 3.8 01:36:02 10° S 01:39:17 23° ESE 01:39:45 23° ESE visible
24 Jan 4.6 03:13:58 10° WSW 03:15:48 25° WSW 03:15:48 25° WSW visible
